Etusivu
METAR-TAF:

METAR-TAF

Lentoasemat :

Scappoose Industrial Airpark

Scappoose, Oregon, Yhdysvallat

Leveyspiiri: 45-46-09N, Pituuspiiri: 122-51-44W, korkeus merenpinnasta: 16 m

Tämänhetkinen sää

Tämä raportti tehtiin 1 tunti ja 0 minuuttia sitten, kello 19.53 UTC
tyyntä
Lämpötila 5°C
Kosteus 81%
Ilmanpaine 1026 hPa
Näkyvyys: 16.1 km
selkeää

METAR: KSPB 221953Z AUTO 00000KT 10SM CLR 05/02 A3029 RMK AO2 SLP257 T00500022

Aika: 12:53 (20:53 UTC)


TAF: puuttuu

Säähavainnot ja -ennusteet yli 4000 lentoasemalta (METAR- ja TAF-raportit).

Käytössä olevat sääasemat on merkitty karttaan keltaisilla ja punaisilla pisteillä.

Aseta hiiri pisteen päälle nähdäksesi sääaseman nimen.

Klikkaa sitten nähdäksesi säähavainnot ja -ennusteet.

Kartan vaihtaminen: klikkaa mustalla rastilla varustettuja vihreitä pisteitä, niin voit zoomata sisään; viivalla varustettua vihreää pistettä, niin voit zoomata ulos tai vihreitä nuolia, niin pääset viereisille kartoille.


METAR-TAF: